Location: Unspecified
(17.6330°N, 0.0000°E)
Time: 13:24:37
(UTC+00:00)

A-11 Canister half - Visible Passes

Search period start: 20 June 2019 00:00
Search period end: 30 June 2019 00:00
Orbit: 1525 x 1684 km, 47.3° (Epoch: 19 June)

Date Brightness Start Highest point End Pass type
(mag) Time Alt. Az. Time Alt. Az. Time Alt. Az.
20 Jun 10.5 01:29:39 22° ESE 01:29:39 22° ESE 01:34:26 10° ENE visible
20 Jun 9.0 03:27:57 41° WSW 03:31:52 74° NW 03:41:15 10° NE visible
21 Jun 10.7 01:09:17 18° E 01:09:17 18° E 01:12:32 10° E visible
21 Jun 8.9 03:07:36 54° WSW 03:10:14 79° NW 03:19:40 10° NE visible
22 Jun 10.9 00:48:52 14° E 00:48:52 14° E 00:50:35 10° E visible
22 Jun 8.8 02:47:10 69° WSW 02:48:37 84° NW 02:58:04 10° NE visible
22 Jun 10.4 04:47:35 10° W 04:54:30 22° NNW 05:01:21 10° NNE visible
23 Jun 11.1 00:28:25 10° E 00:28:25 10° E 00:28:35 10° E visible
23 Jun 8.8 02:26:42 86° WSW 02:26:59 88° NW 02:36:28 10° NE visible
23 Jun 10.4 04:25:36 10° W 04:32:47 23° NNW 04:39:52 10° NNE visible
24 Jun 8.9 02:06:11 78° NE 02:06:11 78° NE 02:14:51 10° NE visible
24 Jun 10.3 04:04:29 12° W 04:11:04 25° NW 04:18:22 10° NNE visible
25 Jun 9.2 01:45:37 63° ENE 01:45:37 63° ENE 01:53:14 10° NE visible
25 Jun 10.2 03:43:55 16° WNW 03:49:21 26° NW 03:56:52 10° NNE visible
26 Jun 9.5 01:25:01 51° ENE 01:25:01 51° ENE 01:31:37 10° NE visible
26 Jun 10.2 03:23:18 20° WNW 03:27:38 28° NW 03:35:22 10° NNE visible
27 Jun 9.8 01:04:21 41° ENE 01:04:21 41° ENE 01:09:58 10° NE visible
27 Jun 10.1 03:02:38 24° WNW 03:05:56 30° NW 03:13:52 10° NNE visible
28 Jun 10.1 00:43:39 34° ENE 00:43:39 34° ENE 00:48:20 10° NE visible
28 Jun 10.0 02:41:55 28° WNW 02:44:14 31° NW 02:52:22 10° NNE visible
29 Jun 10.3 00:22:53 28° ENE 00:22:53 28° ENE 00:26:41 10° NE visible
29 Jun 9.9 02:21:09 32° NW 02:22:32 33° NW 02:30:51 10° NNE visible
